Home > Weather > Ahmedabad > Past weeks

Flag for India Past Weather in Ahmedabad, Gujarat, India — Yesterday and Last 2 Weeks

Now
95 °F

Scattered clouds.


Feels Like: 107 °F
Forecast: 83 / 99 °F
Wind: 7 mph from Southwest

Location: Ahmadabad Airport

Current Time: Jun 27, 2016 at 1:27:14 PM

Latest Report: Jun 27, 2016 at 1:00 PM


Visibility: 3 mi

Pressure: 29.56 "Hg

Humidity: 53%

Dew Point: 75 °F

Location of AhmedabadLocation

Past Weather in Ahmedabad — Graph

°F

Ahmedabad Temperature Yesterday

Maximum temperature yesterday: 99 °F (at 2:30 PM)
Minimum temperature yesterday: 82 °F (at 6:00 AM)
Average temperature yesterday: 89 °F

High & Low Weather Summary for the Past Weeks

 TemperatureHumidityPressure
High109 °F (Jun 12, 4:00 PM)84% (Jun 22, 5:30 PM)29.71 "Hg (Jun 22, 5:30 PM)
Low82 °F (Jun 26, 6:00 AM)25% (Jun 12, 5:00 PM)29.42 "Hg (Jun 20, 5:30 PM)
Average93 °F55%29.58 "Hg
* Reported Jun 12 11:30 AM — Jun 27 12:00 PM, Ahmedabad, Weather by CustomWeather, © 2016

Note: Actual official high and low records may vary slightly from our data, if they occured in-between our weather recording intervals... More about our weather records

Advertising

Ahmedabad Weather History for the Previous 24 Hours

Scroll right to see more
 ConditionsComfort  
Time TempWeatherWind HumidityBarometerVisibility
12:00 PM
Mon, Jun 27
93 °FScattered clouds.10 mph56%29.59 "Hg3 mi
11:30 AM93 °FScattered clouds.8 mph56%29.59 "Hg4 mi
11:00 AM93 °FScattered clouds.9 mph53%29.59 "Hg4 mi
10:30 AM93 °FScattered clouds.9 mph53%29.59 "Hg3 mi
10:00 AM90 °FScattered clouds.6 mph63%29.59 "Hg3 mi
9:30 AM90 °FScattered clouds.5 mph63%29.59 "Hg3 mi
9:00 AM88 °FScattered clouds.5 mph70%29.59 "Hg2 mi
8:30 AM88 °FScattered clouds.6 mph70%29.59 "Hg2 mi
8:00 AM88 °FScattered clouds.6 mph70%29.59 "Hg2 mi
7:00 AM86 °FScattered clouds.7 mph75%29.56 "Hg2 mi
6:30 AM84 °FScattered clouds.6 mph79%29.56 "Hg2 mi
6:00 AM84 °FHaze.3 mph79%29.56 "Hg2 mi
5:30 AM84 °FHaze.7 mph74%29.56 "Hg2 mi
5:00 AM84 °FHaze.9 mph79%29.56 "Hg2 mi
4:30 AM84 °FHaze.8 mph79%29.53 "Hg2 mi
4:00 AM84 °FPassing clouds.7 mph79%29.56 "Hg2 mi
3:30 AM86 °FPassing clouds.5 mph75%29.56 "Hg2 mi
3:00 AM86 °FPassing clouds.6 mph75%29.56 "Hg2 mi
2:30 AM86 °FPassing clouds.9 mph75%29.56 "Hg2 mi
2:00 AM86 °FPassing clouds.7 mph75%29.56 "Hg2 mi
1:30 AM86 °FPassing clouds.6 mph70%29.56 "Hg2 mi
1:00 AM86 °FPassing clouds.9 mph70%29.56 "Hg2 mi
12:30 AM88 °FPassing clouds.7 mph66%29.59 "Hg2 mi
12:00 AM88 °FPassing clouds.9 mph66%29.59 "Hg2 mi
11:30 PM
Sun, Jun 26
88 °FPassing clouds.7 mph66%29.62 "Hg2 mi
11:00 PM88 °FHaze.7 mph70%29.62 "Hg2 mi
10:30 PM88 °FHaze.12 mph70%29.62 "Hg2 mi
10:00 PM88 °FPassing clouds.10 mph70%29.62 "Hg2 mi
9:30 PM90 °FPassing clouds.8 mph63%29.59 "Hg2 mi
9:00 PM90 °FHaze.8 mph63%29.59 "Hg2 mi
8:30 PM90 °FHaze.7 mph59%29.56 "Hg2 mi
8:00 PM91 °FPassing clouds.8 mph59%29.56 "Hg2 mi
7:00 PM95 °FScattered clouds.12 mph50%29.53 "Hg3 mi
6:00 PM97 °FScattered clouds.10 mph47%29.50 "Hg4 mi
5:30 PM97 °FScattered clouds.8 mph47%29.50 "Hg4 mi
5:00 PM97 °FScattered clouds.7 mph47%29.50 "Hg5 mi
3:30 PM99 °FScattered clouds.6 mph44%29.53 "Hg5 mi
3:00 PM99 °FScattered clouds.6 mph44%29.53 "Hg5 mi
2:30 PM99 °FScattered clouds.6 mph44%29.56 "Hg5 mi
2:00 PM97 °FScattered clouds.7 mph47%29.56 "Hg5 mi
1:30 PM97 °FScattered clouds.6 mph47%29.59 "Hg5 mi
1:00 PM95 °FScattered clouds.6 mph50%29.59 "Hg5 mi
Weather by CustomWeather, © 2016

See weather overviewHow to use our weather pages